Location: Newark
(34.6283°N, 36.0776°E)
Time: 13:48:46
(UTC+00:00)

Tiros 1 despin weight - Pass Details

Date: 23 September 2019
Orbit: 593 x 643 km, 48.2° (Epoch: 19 October)

Event Time Altitude Azimuth Distance (km) Brightness Sun altitude
Rises 06:26:49 0° 184° (S) 2,909 ? 35.3°
Reaches altitude 10° 06:30:16 10° 158° (SSE) 1,996 ? 36.0°
Maximum altitude 06:32:27 13° 129° (SE) 1,780 ? 36.3°
Drops below altitude 10° 06:34:38 10° 100° (E) 1,987 ? 36.7°
Sets 06:38:02 0° 74° (ENE) 2,885 ? 37.3°
